Location: Charlotte
(35.2269°N, 80.8433°W)
Time: 01:00:07
(UTC-05:00)

ISS - Visible Passes

Search period start: 28 February 2017 00:00
Search period end: 10 March 2017 00:00
Orbit: 399 x 408 km, 51.6° (Epoch: 28 February)

Date Brightness Start Highest point End Pass type
(mag) Time Alt. Az. Time Alt. Az. Time Alt. Az.
01 Mar -2.7 06:03:10 10° SW 06:06:24 59° SE 06:09:39 10° NE visible
02 Mar -1.3 05:12:41 20° SSE 05:13:57 26° SE 05:16:45 10° ENE visible
03 Mar 0.2 04:22:54 10° ESE 04:22:54 10° ESE 04:23:04 10° E visible
03 Mar -3.0 05:55:34 19° WSW 05:57:40 48° NW 06:00:53 10° NE visible
04 Mar -2.8 05:05:34 59° ENE 05:05:34 59° ENE 05:08:21 10° NE visible
05 Mar 0.3 04:15:24 11° ENE 04:15:24 11° ENE 04:15:32 10° ENE visible
05 Mar -1.8 05:48:04 19° WNW 05:49:01 22° NNW 05:51:41 10° NNE visible
06 Mar -1.4 04:57:45 24° NNE 04:57:45 24° NNE 04:59:24 10° NNE visible
07 Mar -1.0 05:39:58 12° NW 05:40:30 12° NNW 05:41:53 10° N visible
08 Mar -0.5 04:49:28 13° N 04:49:28 13° N 04:50:01 10° NNE visible
